Home   Weather   Warsaw   Past weeks
Flag for Poland

Past Weather in Warsaw, Poland — Yesterday and Last 2 Weeks

Now
72 °F

Clear.


Feels Like: 74 °F
Forecast: 79 / 63 °F
Wind: 8 mph from Southeast

Location: Warsaw Okecie Airport

Current Time: Jun 26, 2019 at 2:12:06 am

Latest Report: Jun 26, 2019 at 1:00 am


Visibility: 10 mi

Pressure: 30.24 "Hg

Humidity: 73%

Dew Point: 63 °F

Location of WarsawLocation

Past Weather in Warsaw — Graph

°F

Warsaw Temperature Yesterday

Maximum temperature yesterday: 90 °F (at 4:00 pm)
Minimum temperature yesterday: 63 °F (at 3:00 am)
Average temperature yesterday: 77 °F

High & Low Weather Summary for the Past Weeks

 TemperatureHumidityPressure
High91 °F (Jun 11, 3:30 pm)100% (Jun 20, 5:30 am)30.33 "Hg (Jun 20, 5:30 am)
Low59 °F (Jun 17, 3:30 am)25% (Jun 23, 11:00 am)29.80 "Hg (Jun 20, 5:00 pm)
Average75 °F60%30.04 "Hg
* Reported Jun 11 1:00 am — Jun 26 1:00 am, Warsaw. Weather by CustomWeather, © 2019

Note: Actual official high and low records may vary slightly from our data, if they occured in-between our weather recording intervals... More about our weather records

Advertising

Warsaw Weather History for the Previous 24 Hours

Scroll right to see more
 ConditionsComfort  
Time TempWeatherWind HumidityBarometerVisibility
1:00 am
Wed, Jun 26
72 °FClear.8 mph73%30.24 "Hg10 mi
12:30 am73 °FClear.9 mph69%30.24 "Hg10 mi
12:00 am75 °FClear.9 mph65%30.24 "Hg10 mi
11:30 pm
Tue, Jun 25
75 °FClear.8 mph65%30.24 "Hg10 mi
11:00 pm73 °FClear.8 mph69%30.24 "Hg10 mi
10:30 pm73 °FClear.8 mph74%30.24 "Hg10 mi
10:00 pm75 °FClear.8 mph65%30.24 "Hg10 mi
9:30 pm77 °FClear.8 mph61%30.24 "Hg10 mi
9:00 pm79 °FSunny.7 mph58%30.24 "Hg10 mi
8:30 pm81 °FSunny.6 mph54%30.24 "Hg10 mi
8:00 pm82 °FSunny.8 mph51%30.24 "Hg10 mi
7:30 pm86 °FSunny.9 mph43%30.24 "Hg10 mi
7:00 pm86 °FPassing clouds.9 mph43%30.24 "HgN/A
6:30 pm88 °FPassing clouds.8 mph40%30.24 "HgN/A
6:00 pm88 °FSunny.12 mph38%30.24 "Hg10 mi
5:30 pm88 °FPassing clouds.8 mph40%30.24 "HgN/A
5:00 pm90 °FPassing clouds.13 mph36%30.24 "HgN/A
4:30 pm88 °FSunny.14 mph38%30.27 "Hg10 mi
4:00 pm90 °FPassing clouds.8 mph36%30.27 "HgN/A
3:30 pm88 °FPassing clouds.10 mph33%30.27 "HgN/A
3:00 pm88 °FSunny.10 mph35%30.30 "Hg10 mi
2:30 pm86 °FPassing clouds.8 mph38%30.30 "HgN/A
2:00 pm86 °FPassing clouds.9 mph33%30.30 "HgN/A
1:30 pm86 °FPassing clouds.10 mph31%30.33 "HgN/A
1:00 pm86 °FPassing clouds.10 mph31%30.33 "HgN/A
12:30 pm84 °FPassing clouds.12 mph31%30.33 "HgN/A
12:00 pm84 °FPassing clouds.10 mph31%30.33 "HgN/A
11:30 am82 °FSunny.10 mph32%30.33 "Hg10 mi
11:00 am82 °FPassing clouds.10 mph32%30.33 "HgN/A
10:00 am81 °FSunny.14 mph34%30.33 "Hg10 mi
9:30 am79 °FSunny.14 mph39%30.33 "Hg10 mi
9:00 am77 °FSunny.13 mph42%30.33 "Hg10 mi
8:30 am77 °FSunny.10 mph42%30.33 "Hg10 mi
8:00 am73 °FPassing clouds.9 mph47%30.33 "HgN/A
7:30 am73 °FSunny.9 mph47%30.33 "Hg10 mi
7:00 am72 °FSunny.8 mph50%30.33 "Hg10 mi
6:30 am70 °FPassing clouds.5 mph53%30.33 "HgN/A
6:00 am66 °FPassing clouds.5 mph60%30.33 "HgN/A
5:30 am64 °FSunny.3 mph64%30.33 "Hg10 mi
5:00 am64 °FPassing clouds.3 mph64%30.33 "HgN/A
4:30 am63 °FSunny.5 mph68%30.33 "Hg10 mi
4:00 am63 °FClear.2 mph68%30.30 "Hg10 mi
3:30 am64 °FClear.2 mph60%30.30 "Hg10 mi
3:00 am63 °FPassing clouds.6 mph64%30.30 "HgN/A
2:30 am66 °FPassing clouds.5 mph60%30.30 "HgN/A
2:00 am64 °FClear.5 mph60%30.30 "Hg10 mi
Weather by CustomWeather, © 2019

See weather overview